Powrót do katalogu

STARLINK-4532

AktywnyŁącznośćVLEO
NORAD 53424·PAYLOAD·🇺🇸 United States

Wystrzelony Aug 10, 2022 z Cape Canaveral Space Force Station

Loading…

Następne Przeloty (najbliższe 24 godziny)

TLE

ŚwieżeSource: CelesTrak SupGP

Epoka: Sep 14, 2026, 19:51 UTC

1 53424C 22097AN  26257.82756944 -.00033365  00000+0 -10729-2 0  2574
2 53424  53.1568 333.2320 0000919  89.4612 196.5674 15.31718465    13

Śledź STARLINK-4532 w czasie rzeczywistym z AllMySat

Download on the App Store